This demonstration page uses our WeatherBlox Daily Observations layout. Learn more.

Left ArrowRight Arrow

Hourly Observations for January 18, 2022

Temp ( °F °C ) Dew Point ( °F °C ) Humidity (%) Winds ( mph kmh ) Pressure ( in mb ) Visibility ( mi km ) Precip ( " mm )
12:53 am 00:53 Clear 39 3.9 34 1.1 82 82 Calm 30.07 1018 9 14 0.00 0.00
1:53 am 01:53 Clear 39 3.9 35 1.7 86 86 Calm 30.08 1019 9 14 0.00 0.00
2:53 am 02:53 Clear with Mist and Fog 37 2.8 34 1.1 89 89 Calm 30.08 1019 6 10 0.00 0.00
3:53 am 03:53 Clear 38 3.3 33 0.6 83 83 Calm 30.07 1018 9 14 0.00 0.00
4:53 am 04:53 Clear 36 2.2 32 0 86 86 Calm 30.08 1019 8 13 0.00 0.00
5:53 am 05:53 Clear 35 1.7 32 0 89 89 Calm 30.10 1019 8 13 0.00 0.00
6:53 am 06:53 Clear 34 1.1 32 0 92 92 Calm 30.11 1020 7 11 0.00 0.00
7:53 am 07:53 Sunny with Mist and Fog 33 0.6 31 -0.6 92 92 Calm 30.12 1020 5 8 0.00 0.00
8:53 am 08:53 Sunny 40 4.4 35 1.7 83 83 Calm 30.14 1021 7 11 0.00 0.00
9:53 am 09:53 Sunny 45 7.2 37 2.8 74 74 SE 3 6 30.13 1020 10 16 0.00 0.00
10:53 am 10:53 Sunny 52 11.1 39 3.9 61 61 Calm 30.14 1021 10 16 0.00 0.00
11:53 am 11:53 Sunny 55 12.8 38 3.3 53 53 Calm 30.12 1020 10 16 0.00 0.00
12:53 pm 12:53 Sunny 59 15 39 3.9 48 48 Calm 30.10 1019 10 16 0.00 0.00
1:53 pm 13:53 Sunny 59 15 39 3.9 48 48 Calm 30.06 1018 10 16 0.00 0.00
2:53 pm 14:53 Sunny 62 16.7 36 2.2 38 38 WNW 3 6 30.07 1018 10 16 0.00 0.00
3:53 pm 15:53 Sunny 62 16.7 39 3.9 43 43 SE 3 6 30.07 1018 10 16 0.00 0.00
4:53 pm 16:53 Sunny 55 12.8 40 4.4 57 57 E 5 7 30.09 1019 10 16 0.00 0.00
5:53 pm 17:53 Clear 50 10 39 3.9 66 66 Calm 30.09 1019 10 16 0.00 0.00
6:53 pm 18:53 Clear 46 7.8 38 3.3 73 73 Calm 30.12 1020 10 16 0.00 0.00
7:53 pm 19:53 Clear 44 6.7 38 3.3 79 79 Calm 30.14 1021 10 16 0.00 0.00
8:53 pm 20:53 Clear 43 6.1 37 2.8 80 80 Calm 30.15 1021 10 16 0.00 0.00
9:53 pm 21:53 Clear 44 6.7 37 2.8 76 76 undefined N/A 30.16 1021 8 13 0.00 0.00
10:53 pm 22:53 Clear 40 4.4 35 1.7 83 83 Calm 30.17 1022 10 16 0.00 0.00
11:53 pm 23:53 Mostly Cloudy 40 4.4 36 2.2 86 86 Calm 30.18 1022 9 14 0.00 0.00

Powered by AerisWeather